User: anonymous   Login
Location: Clatteringshaws Loch
(55.0508°N, 4.2860°W)
Time: 06:24:04
(UTC+01:00)
Language:

ALOS - Orbit

View from above orbital plane
View from above orbital plane
View from above satellite
View from above satellite

Ground track
Ground track

The orbit data is extracted from the following two-line orbital elements,

1 28931U 06002A   15215.23196254  .00000469  00000-0  10257-3 0  9994
2 28931 097.9290 262.7464 0001008 048.8449 311.2840 14.61932443507512
Epoch (UTC): 03 August 2015 05:34:01
Eccentricity: 0.0001008
inclination: 97.9290°
perigee height: 686 km
apogee height: 687 km
right ascension of ascending node: 262.7464°
argument of perigee: 48.8449°
revolutions per day: 14.61932443
mean anomaly at epoch: 311.2840°
orbit number at epoch: 50751

The dashed part of the orbit path shows where the satellite is in the earth's shadow,  

DLR